Time,TemperatureF,DewpointF,PressureIn,WindDirection,WindDirectionDegrees,WindSpeedMPH,WindSpeedGustMPH,Humidity,HourlyPrecipIn,Conditions,Clouds,dailyrainin,SoftwareType,DateUTC
2013-04-28 00:01:00,65.0,28.0,-100.00,South,190,1.0,3.0,25,-99.99,,,-99.99,,2013-04-28 07:01:00,
2013-04-28 00:11:00,65.0,28.0,-100.00,ESE,102,1.0,2.0,25,-99.99,,,-99.99,,2013-04-28 07:11:00,
2013-04-28 00:21:00,65.0,27.0,-100.00,ENE,67,2.0,4.0,24,-99.99,,,-99.99,,2013-04-28 07:21:00,
2013-04-28 00:31:00,65.0,25.0,-100.00,NW,321,2.0,4.0,22,-99.99,,,-99.99,,2013-04-28 07:31:00,
2013-04-28 00:42:00,65.0,24.0,-100.00,West,264,1.0,2.0,21,-99.99,,,-99.99,,2013-04-28 07:42:00,
2013-04-28 00:52:00,65.0,22.0,-100.00,WNW,290,2.0,6.0,19,-99.99,,,-99.99,,2013-04-28 07:52:00,
2013-04-28 01:01:00,65.0,20.0,-100.00,WNW,282,3.0,6.0,18,-99.99,,,-99.99,,2013-04-28 08:01:00,
2013-04-28 01:11:00,65.0,19.0,-100.00,WNW,294,4.0,7.0,17,-99.99,,,-99.99,,2013-04-28 08:11:00,
2013-04-28 01:21:00,65.0,18.0,-100.00,WNW,300,4.0,9.0,16,-99.99,,,-99.99,,2013-04-28 08:21:00,
2013-04-28 01:32:00,65.0,16.0,-100.00,NW,307,3.0,6.0,15,-99.99,,,-99.99,,2013-04-28 08:32:00,
2013-04-28 01:42:00,65.0,15.0,-100.00,NW,314,2.0,6.0,14,-99.99,,,-99.99,,2013-04-28 08:42:00,
2013-04-28 01:52:00,65.0,15.0,-100.00,NW,314,2.0,6.0,14,-99.99,,,-99.99,,2013-04-28 08:52:00,
2013-04-28 02:01:00,66.0,14.0,-100.00,NNW,330,2.0,5.0,13,-99.99,,,-99.99,,2013-04-28 09:01:00,
2013-04-28 02:11:00,65.0,11.0,-100.00,North,357,2.0,7.0,12,-99.99,,,-99.99,,2013-04-28 09:11:00,
2013-04-28 02:21:00,66.0,12.0,-100.00,WNW,291,3.0,6.0,12,-99.99,,,-99.99,,2013-04-28 09:21:00,
2013-04-28 02:32:00,66.0,12.0,-100.00,NNW,331,2.0,6.0,12,-99.99,,,-99.99,,2013-04-28 09:32:00,
2013-04-28 02:42:00,66.0,10.0,-100.00,NNW,328,3.0,8.0,11,-99.99,,,-99.99,,2013-04-28 09:42:00,
2013-04-28 02:53:00,66.0,10.0,-100.00,South,185,2.0,3.0,11,-99.99,,,-99.99,,2013-04-28 09:53:00,
2013-04-28 03:02:00,66.0,10.0,-100.00,NNW,343,3.0,8.0,11,-99.99,,,-99.99,,2013-04-28 10:02:00,
2013-04-28 03:12:00,66.0,14.0,-100.00,NNW,329,4.0,7.0,13,-99.99,,,-99.99,,2013-04-28 10:12:00,
2013-04-28 03:22:00,66.0,15.0,-100.00,NW,311,6.0,11.0,14,-99.99,,,-99.99,,2013-04-28 10:22:00,
2013-04-28 03:32:00,66.0,15.0,-100.00,NW,308,7.0,12.0,14,-99.99,,,-99.99,,2013-04-28 10:32:00,
2013-04-28 03:42:00,66.0,15.0,-100.00,WNW,298,5.0,10.0,14,-99.99,,,-99.99,,2013-04-28 10:42:00,
2013-04-28 03:52:00,66.0,15.0,-100.00,WNW,288,4.0,10.0,14,-99.99,,,-99.99,,2013-04-28 10:52:00,
2013-04-28 04:02:00,66.0,15.0,-100.00,NNW,327,2.0,5.0,14,-99.99,,,-99.99,,2013-04-28 11:02:00,
2013-04-28 04:11:00,66.0,15.0,-100.00,West,261,2.0,5.0,14,-99.99,,,-99.99,,2013-04-28 11:11:00,
2013-04-28 04:21:00,65.0,16.0,-100.00,NE,35,2.0,3.0,15,-99.99,,,-99.99,,2013-04-28 11:21:00,
2013-04-28 04:32:00,65.0,16.0,-100.00,ESE,109,2.0,4.0,15,-99.99,,,-99.99,,2013-04-28 11:32:00,
2013-04-28 04:42:00,65.0,18.0,-100.00,ESE,114,3.0,5.0,16,-99.99,,,-99.99,,2013-04-28 11:42:00,
2013-04-28 04:52:00,65.0,18.0,-100.00,ENE,70,2.0,3.0,16,-99.99,,,-99.99,,2013-04-28 11:52:00,
2013-04-28 05:01:00,65.0,19.0,-100.00,ENE,62,1.0,3.0,17,-99.99,,,-99.99,,2013-04-28 12:01:00,
2013-04-28 05:11:00,65.0,19.0,-100.00,NE,43,2.0,4.0,17,-99.99,,,-99.99,,2013-04-28 12:11:00,
2013-04-28 05:21:00,66.0,20.0,-100.00,West,262,1.0,5.0,17,-99.99,,,-99.99,,2013-04-28 12:21:00,
2013-04-28 05:32:00,65.0,18.0,-100.00,North,359,1.0,4.0,16,-99.99,,,-99.99,,2013-04-28 12:32:00,
2013-04-28 05:42:00,66.0,17.0,-100.00,NNW,343,2.0,6.0,15,-99.99,,,-99.99,,2013-04-28 12:42:00,
2013-04-28 05:51:00,66.0,15.0,-100.00,NNW,332,2.0,6.0,14,-99.99,,,-99.99,,2013-04-28 12:51:00,
2013-04-28 06:02:00,66.0,15.0,-100.00,NW,316,3.0,6.0,14,-99.99,,,-99.99,,2013-04-28 13:02:00,
2013-04-28 06:11:00,66.0,17.0,-100.00,NW,326,3.0,5.0,15,-99.99,,,-99.99,,2013-04-28 13:11:00,
2013-04-28 06:21:00,66.0,17.0,-100.00,NW,319,3.0,4.0,15,-99.99,,,-99.99,,2013-04-28 13:21:00,
2013-04-28 06:31:00,66.0,15.0,-100.00,NW,317,3.0,4.0,14,-99.99,,,-99.99,,2013-04-28 13:31:00,
2013-04-28 06:42:00,66.0,15.0,-100.00,NW,314,3.0,6.0,14,-99.99,,,-99.99,,2013-04-28 13:42:00,
2013-04-28 06:52:00,66.0,17.0,-100.00,NW,308,3.0,5.0,15,-99.99,,,-99.99,,2013-04-28 13:52:00,
2013-04-28 07:01:00,66.0,19.0,-100.00,NW,308,3.0,5.0,16,-99.99,,,-99.99,,2013-04-28 14:01:00,
2013-04-28 07:11:00,66.0,21.0,-100.00,NW,307,2.0,5.0,18,-99.99,,,-99.99,,2013-04-28 14:11:00,
2013-04-28 07:21:00,66.0,21.0,-100.00,WNW,289,2.0,4.0,18,-99.99,,,-99.99,,2013-04-28 14:21:00,
2013-04-28 07:31:00,66.0,21.0,-100.00,NNW,332,2.0,4.0,18,-99.99,,,-99.99,,2013-04-28 14:31:00,
2013-04-28 07:41:00,66.0,20.0,-100.00,NW,311,2.0,5.0,17,-99.99,,,-99.99,,2013-04-28 14:41:00,
2013-04-28 07:51:00,66.0,20.0,-100.00,NNW,332,3.0,6.0,17,-99.99,,,-99.99,,2013-04-28 14:51:00,
2013-04-28 08:01:00,66.0,19.0,-100.00,NW,321,5.0,7.0,16,-99.99,,,-99.99,,2013-04-28 15:01:00,
2013-04-28 08:12:00,66.0,19.0,-100.00,NW,321,5.0,7.0,16,-99.99,,,-99.99,,2013-04-28 15:12:00,
2013-04-28 08:21:00,68.0,19.0,-100.00,NW,323,6.0,8.0,15,-99.99,,,-99.99,,2013-04-28 15:21:00,
2013-04-28 08:32:00,68.0,19.0,-100.00,NW,323,5.0,7.0,15,-99.99,,,-99.99,,2013-04-28 15:32:00,
2013-04-28 08:42:00,69.0,19.0,-100.00,NW,324,5.0,8.0,15,-99.99,,,-99.99,,2013-04-28 15:42:00,
2013-04-28 08:53:00,69.0,21.0,-100.00,NW,318,4.0,7.0,16,-99.99,,,-99.99,,2013-04-28 15:53:00,
2013-04-28 09:03:00,70.0,23.0,-100.00,NW,308,3.0,6.0,17,-99.99,,,-99.99,,2013-04-28 16:03:00,
2013-04-28 09:13:00,70.0,27.0,-100.00,West,268,1.0,3.0,20,-99.99,,,-99.99,,2013-04-28 16:13:00,
2013-04-28 09:23:00,71.0,25.0,-100.00,West,261,2.0,5.0,18,-99.99,,,-99.99,,2013-04-28 16:23:00,
2013-04-28 09:32:00,72.0,20.0,-100.00,NW,305,4.0,6.0,14,-99.99,,,-99.99,,2013-04-28 16:32:00,
2013-04-28 09:42:00,73.0,17.0,-100.00,NW,318,5.0,8.0,12,-99.99,,,-99.99,,2013-04-28 16:42:00,
2013-04-28 09:52:00,73.0,13.0,-100.00,NW,318,4.0,8.0,10,-99.99,,,-99.99,,2013-04-28 16:52:00,
2013-04-28 10:02:00,74.0,12.0,-100.00,West,271,5.0,9.0,9,-99.99,,,-99.99,,2013-04-28 17:02:00,
2013-04-28 10:12:00,75.0,15.0,-100.00,WSW,255,3.0,6.0,10,-99.99,,,-99.99,,2013-04-28 17:12:00,
2013-04-28 10:21:00,76.0,18.0,-100.00,NW,326,4.0,13.0,11,-99.99,,,-99.99,,2013-04-28 17:21:00,
2013-04-28 10:32:00,76.0,13.0,-100.00,NE,37,4.0,11.0,9,-99.99,,,-99.99,,2013-04-28 17:32:00,
2013-04-28 10:42:00,76.0,10.0,-100.00,ENE,78,7.0,15.0,8,-99.99,,,-99.99,,2013-04-28 17:42:00,
2013-04-28 10:51:00,76.0,10.0,-100.00,ENE,65,6.0,14.0,8,-99.99,,,-99.99,,2013-04-28 17:51:00,
2013-04-28 11:01:00,77.0,11.0,-100.00,SSE,154,2.0,7.0,8,-99.99,,,-99.99,,2013-04-28 18:01:00,
2013-04-28 11:12:00,77.0,11.0,-100.00,ESE,108,8.0,17.0,8,-99.99,,,-99.99,,2013-04-28 18:12:00,
2013-04-28 11:22:00,77.0,11.0,-100.00,East,99,10.0,16.0,8,-99.99,,,-99.99,,2013-04-28 18:22:00,
2013-04-28 11:32:00,77.0,11.0,-100.00,ESE,107,8.0,15.0,8,-99.99,,,-99.99,,2013-04-28 18:32:00,
2013-04-28 11:42:00,77.0,11.0,-100.00,SSE,152,6.0,12.0,8,-99.99,,,-99.99,,2013-04-28 18:42:00,
2013-04-28 11:51:00,77.0,11.0,-100.00,SE,126,8.0,15.0,8,-99.99,,,-99.99,,2013-04-28 18:51:00,
2013-04-28 12:01:00,77.0,8.0,-100.00,East,86,11.0,17.0,7,-99.99,,,-99.99,,2013-04-28 19:01:00,
2013-04-28 12:11:00,78.0,9.0,-100.00,East,100,5.0,14.0,7,-99.99,,,-99.99,,2013-04-28 19:11:00,
2013-04-28 12:21:00,79.0,10.0,-100.00,SE,131,7.0,12.0,7,-99.99,,,-99.99,,2013-04-28 19:21:00,
2013-04-28 12:31:00,79.0,18.0,-100.00,South,191,5.0,12.0,10,-99.99,,,-99.99,,2013-04-28 19:31:00,
2013-04-28 12:41:00,78.0,23.0,-100.00,WNW,286,6.0,14.0,13,-99.99,,,-99.99,,2013-04-28 19:41:00,
2013-04-28 12:52:00,79.0,15.0,-100.00,West,266,6.0,15.0,9,-99.99,,,-99.99,,2013-04-28 19:52:00,
2013-04-28 13:01:00,78.0,21.0,-100.00,West,264,9.0,15.0,12,-99.99,,,-99.99,,2013-04-28 20:01:00,
2013-04-28 13:11:00,78.0,21.0,-100.00,WNW,289,9.0,17.0,12,-99.99,,,-99.99,,2013-04-28 20:11:00,
2013-04-28 13:22:00,77.0,22.0,-100.00,WNW,284,11.0,19.0,13,-99.99,,,-99.99,,2013-04-28 20:22:00,
2013-04-28 13:32:00,76.0,22.0,-100.00,West,277,13.0,24.0,13,-99.99,,,-99.99,,2013-04-28 20:32:00,
2013-04-28 13:41:00,76.0,23.0,-100.00,West,274,13.0,22.0,14,-99.99,,,-99.99,,2013-04-28 20:41:00,
2013-04-28 13:51:00,77.0,24.0,-100.00,West,270,12.0,21.0,14,-99.99,,,-99.99,,2013-04-28 20:51:00,
2013-04-28 14:01:00,76.0,22.0,-100.00,West,265,15.0,21.0,13,-99.99,,,-99.99,,2013-04-28 21:01:00,
2013-04-28 14:11:00,77.0,22.0,-100.00,WNW,282,14.0,20.0,13,-99.99,,,-99.99,,2013-04-28 21:11:00,
2013-04-28 14:21:00,76.0,23.0,-100.00,WNW,284,15.0,21.0,14,-99.99,,,-99.99,,2013-04-28 21:21:00,
2013-04-28 14:32:00,77.0,26.0,-100.00,West,270,14.0,24.0,15,-99.99,,,-99.99,,2013-04-28 21:32:00,
2013-04-28 14:42:00,76.0,25.0,-100.00,West,269,17.0,27.0,15,-99.99,,,-99.99,,2013-04-28 21:42:00,
2013-04-28 14:52:00,75.0,23.0,-100.00,West,261,17.0,24.0,14,-99.99,,,-99.99,,2013-04-28 21:52:00,
2013-04-28 15:02:00,75.0,26.0,-100.00,West,263,16.0,27.0,16,-99.99,,,-99.99,,2013-04-28 22:02:00,
2013-04-28 15:12:00,75.0,26.0,-100.00,West,260,16.0,28.0,16,-99.99,,,-99.99,,2013-04-28 22:12:00,
2013-04-28 15:22:00,76.0,25.0,-100.00,West,263,15.0,26.0,15,-99.99,,,-99.99,,2013-04-28 22:22:00,
2013-04-28 15:33:00,75.0,26.0,-100.00,West,265,19.0,29.0,16,-99.99,,,-99.99,,2013-04-28 22:33:00,
2013-04-28 15:42:00,74.0,29.0,-100.00,West,276,17.0,25.0,19,-99.99,,,-99.99,,2013-04-28 22:42:00,
2013-04-28 15:52:00,74.0,28.0,-100.00,West,266,16.0,26.0,18,-99.99,,,-99.99,,2013-04-28 22:52:00,
2013-04-28 16:02:00,74.0,29.0,-100.00,West,274,15.0,25.0,19,-99.99,,,-99.99,,2013-04-28 23:02:00,
2013-04-28 16:11:00,75.0,30.0,-100.00,West,267,16.0,28.0,19,-99.99,,,-99.99,,2013-04-28 23:11:00,
2013-04-28 16:21:00,74.0,29.0,-100.00,West,272,15.0,25.0,19,-99.99,,,-99.99,,2013-04-28 23:21:00,
2013-04-28 16:32:00,74.0,32.0,-100.00,West,272,16.0,24.0,21,-99.99,,,-99.99,,2013-04-28 23:32:00,
2013-04-28 16:41:00,74.0,30.0,-100.00,West,263,15.0,22.0,20,-99.99,,,-99.99,,2013-04-28 23:41:00,
2013-04-28 16:51:00,73.0,30.0,-100.00,West,268,17.0,23.0,20,-99.99,,,-99.99,,2013-04-28 23:51:00,
2013-04-28 17:01:00,73.0,30.0,-100.00,WSW,257,15.0,21.0,20,-99.99,,,-99.99,,2013-04-29 00:01:00,
2013-04-28 17:11:00,73.0,28.0,-100.00,West,263,15.0,27.0,19,-99.99,,,-99.99,,2013-04-29 00:11:00,
2013-04-28 17:22:00,73.0,28.0,-100.00,West,263,15.0,22.0,19,-99.99,,,-99.99,,2013-04-29 00:22:00,
2013-04-28 17:32:00,73.0,27.0,-100.00,West,259,14.0,20.0,18,-99.99,,,-99.99,,2013-04-29 00:32:00,
2013-04-28 17:41:00,73.0,27.0,-100.00,West,259,14.0,20.0,18,-99.99,,,-99.99,,2013-04-29 00:41:00,
2013-04-28 17:52:00,73.0,26.0,-100.00,West,264,12.0,19.0,17,-99.99,,,-99.99,,2013-04-29 00:52:00,
2013-04-28 18:01:00,72.0,25.0,-100.00,WSW,256,12.0,19.0,17,-99.99,,,-99.99,,2013-04-29 01:01:00,
2013-04-28 18:12:00,72.0,23.0,-100.00,WSW,250,11.0,17.0,16,-99.99,,,-99.99,,2013-04-29 01:12:00,
2013-04-28 18:21:00,72.0,25.0,-100.00,WSW,252,10.0,16.0,17,-99.99,,,-99.99,,2013-04-29 01:21:00,
2013-04-28 18:32:00,72.0,20.0,-100.00,WSW,251,9.0,15.0,14,-99.99,,,-99.99,,2013-04-29 01:32:00,
2013-04-28 18:41:00,72.0,20.0,-100.00,WSW,238,8.0,11.0,14,-99.99,,,-99.99,,2013-04-29 01:41:00,
2013-04-28 18:52:00,72.0,20.0,-100.00,WSW,249,9.0,19.0,14,-99.99,,,-99.99,,2013-04-29 01:52:00,
2013-04-28 19:01:00,71.0,18.0,-100.00,WSW,240,10.0,17.0,13,-99.99,,,-99.99,,2013-04-29 02:01:00,
2013-04-28 19:11:00,71.0,18.0,-100.00,WSW,252,9.0,13.0,13,-99.99,,,-99.99,,2013-04-29 02:11:00,
2013-04-28 19:21:00,70.0,17.0,-100.00,WSW,239,8.0,13.0,13,-99.99,,,-99.99,,2013-04-29 02:21:00,
2013-04-28 19:31:00,70.0,17.0,-100.00,West,269,7.0,13.0,13,-99.99,,,-99.99,,2013-04-29 02:31:00,
2013-04-28 19:41:00,69.0,16.0,-100.00,WNW,284,6.0,11.0,13,-99.99,,,-99.99,,2013-04-29 02:41:00,
2013-04-28 19:51:00,69.0,14.0,-100.00,WNW,284,7.0,15.0,12,-99.99,,,-99.99,,2013-04-29 02:51:00,
2013-04-28 20:01:00,69.0,12.0,-100.00,West,277,7.0,14.0,11,-99.99,,,-99.99,,2013-04-29 03:01:00,
2013-04-28 20:12:00,68.0,12.0,-100.00,NW,306,7.0,12.0,11,-99.99,,,-99.99,,2013-04-29 03:12:00,
2013-04-28 20:21:00,68.0,12.0,-100.00,WNW,294,7.0,12.0,11,-99.99,,,-99.99,,2013-04-29 03:21:00,
2013-04-28 20:33:00,68.0,12.0,-100.00,WNW,286,7.0,12.0,11,-99.99,,,-99.99,,2013-04-29 03:33:00,
2013-04-28 20:42:00,68.0,12.0,-100.00,West,281,4.0,8.0,11,-99.99,,,-99.99,,2013-04-29 03:42:00,
2013-04-28 21:12:00,67.0,11.0,-100.00,ENE,69,2.0,3.0,11,-99.99,,,-99.99,,2013-04-29 04:12:00,
2013-04-28 21:23:00,68.0,12.0,-100.00,WNW,285,2.0,5.0,11,-99.99,,,-99.99,,2013-04-29 04:23:00,
2013-04-28 21:32:00,68.0,12.0,-100.00,WNW,293,3.0,5.0,11,-99.99,,,-99.99,,2013-04-29 04:32:00,
2013-04-28 21:43:00,67.0,11.0,-100.00,WNW,294,2.0,6.0,11,-99.99,,,-99.99,,2013-04-29 04:43:00,
2013-04-28 21:52:00,67.0,11.0,-100.00,NW,310,2.0,5.0,11,-99.99,,,-99.99,,2013-04-29 04:52:00,
2013-04-28 22:02:00,68.0,12.0,-100.00,WNW,291,3.0,7.0,11,-99.99,,,-99.99,,2013-04-29 05:02:00,
2013-04-28 22:12:00,68.0,9.0,-100.00,WNW,294,4.0,7.0,10,-99.99,,,-99.99,,2013-04-29 05:12:00,
2013-04-28 22:22:00,67.0,11.0,-100.00,WNW,298,5.0,9.0,11,-99.99,,,-99.99,,2013-04-29 05:22:00,
2013-04-28 22:42:00,66.0,10.0,-100.00,West,277,5.0,8.0,11,-99.99,,,-99.99,,2013-04-29 05:42:00,
2013-04-28 22:52:00,67.0,11.0,-100.00,WNW,295,7.0,13.0,11,-99.99,,,-99.99,,2013-04-29 05:52:00,
2013-04-28 23:02:00,67.0,11.0,-100.00,WNW,297,7.0,14.0,11,-99.99,,,-99.99,,2013-04-29 06:02:00,
2013-04-28 23:11:00,66.0,12.0,-100.00,South,173,3.0,9.0,12,-99.99,,,-99.99,,2013-04-29 06:11:00,
2013-04-28 23:21:00,65.0,11.0,-100.00,WSW,242,2.0,5.0,12,-99.99,,,-99.99,,2013-04-29 06:21:00,
2013-04-28 23:32:00,65.0,9.0,-100.00,SSE,152,1.0,3.0,11,-99.99,,,-99.99,,2013-04-29 06:32:00,
2013-04-28 23:42:00,65.0,9.0,-100.00,WNW,298,2.0,5.0,11,-99.99,,,-99.99,,2013-04-29 06:42:00,
2013-04-28 23:51:00,67.0,11.0,-100.00,WNW,300,6.0,9.0,11,-99.99,,,-99.99,,2013-04-29 06:51:00,